Location: Pcim
(49.7500°N, 19.9670°E)
Time: 12:20:10
(UTC+01:00)

BlueWalker 3 - Visible Passes

Search period start: 05 December 2023 00:00
Search period end: 15 December 2023 00:00
Orbit: 489 x 503 km, 53.2° (Epoch: 04 December)

Date Brightness Start Highest point End Pass type
(mag) Time Alt. Az. Time Alt. Az. Time Alt. Az.
05 Dec 4.9 03:58:08 12° SE 03:58:08 12° SE 03:58:26 10° SE visible
05 Dec 4.1 05:32:43 13° SW 05:32:43 13° SW 05:34:19 10° SSW visible
06 Dec 4.4 05:11:21 11° SSW 05:11:21 11° SSW 05:11:41 10° SSW visible
14 Dec 4.4 17:32:52 10° SE 17:33:09 10° SE 17:33:09 10° SE visible
